This is the latest recevied weather packets stored in our database for station/object WX4SGA. If no packets are shown the sender has not sent any weather packets the latest 10 day(s).
| Time | Temp. | Humidity | Pressure | Rain* | Wind** | Luminosity | Snow |
|---|---|---|---|---|---|---|---|
| 1778244905 | 19.44° C | 82% | 1017.3 hPa | 0 mm | - | 72 W/m² | - |
| 1778244603 | 19.44° C | 83% | 1017.6 hPa | 0 mm | - | 60 W/m² | - |
| 1778244301 | 19.44° C | 82% | 1017.3 hPa | 0 mm | - | 74 W/m² | - |
| 1778243997 | 20° C | 83% | 1017.3 hPa | 0 mm | - | 69 W/m² | - |
| 1778243696 | 19.44° C | 83% | 1017.3 hPa | 0 mm | - | 83 W/m² | - |
| 1778243392 | 19.44° C | 82% | 1017.3 hPa | 0 mm | - | 101 W/m² | - |
| 1778243089 | 19.44° C | 83% | 1017.3 hPa | 0 mm | - | 78 W/m² | - |
| 1778242786 | 19.44° C | 83% | 1016.9 hPa | 0 mm | - | 72 W/m² | - |
| 1778242484 | 19.44° C | 84% | 1016.9 hPa | 0 mm | - | 69 W/m² | - |
| 1778242182 | 19.44° C | 85% | 1016.6 hPa | 0 mm | - | 65 W/m² | - |
| 1778241880 | 19.44° C | 85% | 1016.9 hPa | 0 mm | - | 40 W/m² | - |
| 1778241577 | 19.44° C | 86% | 1016.9 hPa | 0 mm | - | 47 W/m² | - |
| 1778241275 | 19.44° C | 86% | 1016.6 hPa | 0 mm | - | 52 W/m² | - |
| 1778240971 | 19.44° C | 87% | 1016.6 hPa | 0 mm | - | 52 W/m² | - |
| 1778240668 | 19.44° C | 87% | 1016.6 hPa | 0 mm | - | 45 W/m² | - |
| 1778240364 | 18.89° C | 86% | 1016.6 hPa | 0 mm | - | 35 W/m² | - |
| 1778240062 | 18.89° C | 86% | 1016.3 hPa | 0 mm | - | 29 W/m² | - |
| 1778239760 | 18.89° C | 86% | 1016.3 hPa | 0 mm | - | 27 W/m² | - |
| 1778239456 | 18.89° C | 87% | 1016.3 hPa | 0 mm | - | 21 W/m² | - |
| 1778239153 | 18.89° C | 87% | 1016.3 hPa | 0 mm | - | 23 W/m² | - |
| 1778238850 | 18.89° C | 86% | 1016.3 hPa | 0 mm | - | 21 W/m² | - |
| 1778238547 | 18.89° C | 86% | 1015.9 hPa | 0 mm | - | 13 W/m² | - |
| 1778238245 | 18.89° C | 86% | 1015.9 hPa | 0 mm | - | 8 W/m² | - |
| 1778237944 | 18.89° C | 86% | 1015.9 hPa | 0 mm | - | 6 W/m² | - |
| 1778237641 | 18.89° C | 86% | 1015.9 hPa | 0 mm | - | 3 W/m² | - |
* Rain latest hour (hover to see other rain measurements)
** Current wind speed in m/s (hover to see current wind gust speed)